Flag for Moldova Weather past 2 weeks in Chisinau, Moldova

Now
66 °F

Passing clouds.


Feels Like: 66 °F
Forecast: 61 / 85 °F
Wind: 8 mph from Northeast

Location: Chisinau International Airport

Current Time: Jul 24, 2014 at 2:01:22 AM

Latest Report: Jul 24, 2014 at 1:30 AM


Visibility: N/A

Pressure: 29.83 "Hg

Humidity: 83%

Dew point: 61 °F

Location of ChisinauLocation

Historic Weather in Chisinau — Graph

°F

Chisinau temperature yesterday

Maximum temperature yesterday: 84 °F (at 2:00 PM)
Minimum temperature yesterday: 66 °F (at 6:30 AM)
Average temperature yesterday: 71 °F

Past Weeks' High & Low Weather Summary

 TemperatureHumidityPressure
High88 °F (Jul 21, 4:00 PM)94% (Jul 11, 7:00 PM)29.98 "Hg (Jul 11, 7:00 PM)
Low59 °F (Jul 9, 6:00 AM)25% (Jul 15, 6:30 PM)29.56 "Hg (Jul 11, 3:30 PM)
Average74 °F63%29.83 "Hg
* Reported Jul 9 1:00 AM — Jul 24 1:00 AM, Chisinau, Weather by CustomWeather, © 2014

Note: Actual official high and low records may vary slightly from our data, if they occured in-between our weather recording intervals... More about our weather records

Advertising

Chisinau weather history for previous 24 hours

 ConditionsComfort  
Time TempWeatherWind HumidityBarometerVisibility
1:00 AM
Jul 24
66 °FPassing clouds.6 mph83%29.83 "HgN/A
12:30 AM68 °FPassing clouds.6 mph83%29.83 "HgN/A
12:00 AM68 °FPassing clouds.6 mph83%29.80 "HgN/A
11:30 PM
Jul 23
68 °FPassing clouds.9 mph83%29.80 "HgN/A
11:00 PM68 °FPassing clouds.7 mph83%29.80 "Hg6 mi
10:00 PM70 °FPassing clouds.7 mph83%29.83 "Hg4 mi
9:30 PM70 °FScattered clouds.2 mph83%29.83 "HgN/A
9:00 PM70 °FScattered clouds.8 mph83%29.80 "HgN/A
8:30 PM70 °FScattered clouds.3 mph83%29.80 "HgN/A
8:00 PM70 °FScattered clouds.6 mph83%29.80 "HgN/A
7:30 PM70 °FScattered clouds.6 mph78%29.77 "HgN/A
7:00 PM70 °FScattered clouds.3 mph83%29.80 "HgN/A
6:30 PM68 °FPartly sunny.6 mph88%29.80 "HgN/A
6:00 PM68 °FThundershowers. Partly sunny.5 mph88%29.80 "HgN/A
5:30 PM68 °FThundershowers. More clouds than sun.7 mph83%29.80 "Hg4 mi
5:00 PM68 °FThunderstorms. Mostly cloudy.6 mph83%29.80 "Hg4 mi
4:00 PM72 °FThunderstorms. Mostly cloudy.6 mph78%29.80 "Hg4 mi
3:30 PM73 °FThunderstorms. Mostly cloudy.5 mph74%29.80 "Hg6 mi
3:00 PM77 °FThunderstorms. Mostly cloudy.8 mph57%29.80 "HgN/A
2:30 PM81 °FThundershowers. Partly sunny.13 mph42%29.80 "HgN/A
2:00 PM84 °FThundershowers. Partly sunny.14 mph40%29.77 "HgN/A
1:00 PM82 °FScattered clouds.16 mph45%29.80 "HgN/A
12:30 PM79 °FPartly sunny.17 mph51%29.80 "HgN/A
12:00 PM81 °FPartly sunny.18 mph48%29.80 "HgN/A
9:00 AM73 °FPassing clouds.12 mph61%29.83 "HgN/A
8:00 AM70 °FScattered clouds.10 mph73%29.83 "HgN/A
7:30 AM68 °FPartly sunny.10 mph78%29.83 "HgN/A
7:00 AM68 °FPartly sunny.7 mph78%29.83 "HgN/A
6:30 AM66 °FPassing clouds.7 mph83%29.83 "HgN/A
6:00 AM68 °FPassing clouds.5 mph78%29.83 "HgN/A
5:30 AM68 °FPassing clouds.9 mph73%29.83 "HgN/A
5:00 AM68 °FPassing clouds.9 mph78%29.83 "HgN/A
4:30 AM68 °FPassing clouds.9 mph78%29.83 "HgN/A
4:00 AM68 °FPassing clouds.10 mph78%29.83 "HgN/A
3:30 AM68 °FPassing clouds.9 mph78%29.83 "HgN/A
3:00 AM68 °FPassing clouds.10 mph78%29.83 "HgN/A
Weather by CustomWeather, © 2014

See weather overviewHow to use our weather pages